EW6013 Weather Reports


Display with metric or nautical units.
time (UTC)temp
F
wind
direction
speed
MPH
gust
MPH
rain 1hr
in
rain 24hr
in
rain mn
in
humidity
%
barometer
mb
20260906212016 70 0.0 0.0 0.00 0.33 0.15 67 1011.7
20260906211515 70 0.0 0.0 0.00 0.36 0.15 66 1011.7
20260906211016 70 0.0 0.0 0.00 0.40 0.15 62 1011.6
20260906210516 71 0.0 3.0 0.00 0.44 0.15 62 1011.5
20260906210016 71 23 0.0 7.0 0.00 0.50 0.15 58 1011.5
20260906205516 71 309 1.0 7.0 0.00 0.55 0.15 56 1011.5
20260906205016 71 316 1.0 7.0 0.00 0.61 0.15 58 1011.5
20260906204516 70 50 1.0 7.0 0.00 0.67 0.15 60 1011.5
20260906204016 70 40 1.0 7.0 0.00 0.74 0.15 65 1011.4
20260906203516 70 312 0.0 3.0 0.00 0.78 0.15 66 1011.4
20260906203016 70 80 0.0 3.0 0.00 0.79 0.15 64 1011.4
20260906202556 70 24 0.0 3.0 0.00 0.79 0.15 64 1011.4
20260906202016 71 22 0.0 3.0 0.00 0.79 0.15 65 1011.4
20260906201516 70 336 0.0 11.0 0.00 0.79 0.15 64 1011.4
20260906201016 70 282 1.0 11.0 0.00 0.79 0.15 64 1011.3
20260906200515 70 227 1.0 4.0 0.00 0.79 0.15 64 1011.3
20260906200035 70 226 0.0 3.0 0.00 0.79 0.15 67 1011.3
20260906195516 70 285 0.0 4.0 0.00 0.79 0.15 65 1011.4
20260906195015 69 272 0.0 4.0 0.00 0.79 0.15 68 1011.3
20260906194535 69 212 0.0 4.0 0.00 0.79 0.15 67 1011.3
20260906194015 69 192 0.0 5.0 0.00 0.79 0.15 66 1011.3
20260906193515 69 92 0.0 5.0 0.00 0.79 0.15 67 1011.4
20260906193035 69 0.0 1.0 0.00 0.79 0.15 68 1011.3
20260906192535 69 230 0.0 4.0 0.00 0.79 0.15 70 1011.3
20260906192015 69 305 0.0 4.0 0.00 0.79 0.15 69 1011.4
20260906191515 68 27 0.0 2.0 0.00 0.79 0.15 70 1011.5
20260906191015 68 41 0.0 2.0 0.00 0.79 0.15 70 1011.6
20260906190515 68 247 0.0 2.0 0.00 0.79 0.15 70 1011.6
20260906190016 68 46 0.0 3.0 0.00 0.79 0.15 71 1011.7
20260906185515 68 250 0.0 3.0 0.00 0.79 0.15 74 1011.7
20260906185015 68 239 0.0 10.0 0.00 0.79 0.15 72 1011.7
20260906184515 67 234 1.0 10.0 0.00 0.79 0.15 74 1011.8
20260906184036 67 289 1.0 10.0 0.00 0.79 0.15 74 1011.8
20260906183515 68 309 0.0 1.0 0.00 0.79 0.15 74 1011.9
20260906183016 68 0.0 0.0 0.00 0.79 0.15 74 1012.0
20260906182515 68 0.0 0.0 0.00 0.79 0.15 75 1012.0
20260906182015 69 0.0 2.0 0.00 0.79 0.15 74 1012.0
20260906181515 69 337 0.0 3.0 0.00 0.79 0.15 71 1011.9
20260906181035 69 328 0.0 3.0 0.00 0.79 0.15 75 1011.9
20260906180515 68 0.0 2.0 0.00 0.79 0.15 73 1011.9
20260906180015 68 306 0.0 2.0 0.00 0.79 0.15 73 1012.0
20260906175515 68 0.0 0.0 0.00 0.79 0.15 74 1012.0
20260906175015 67 0.0 0.0 0.00 0.79 0.15 75 1012.1
20260906174515 67 0.0 0.0 0.00 0.79 0.15 75 1012.1
20260906174155 67 0.0 0.0 0.00 0.79 0.15 74 1012.2
20260906173535 67 0.0 0.0 0.00 0.79 0.15 71 1012.2
20260906173016 66 0.0 3.0 0.00 0.79 0.15 74 1012.3
20260906172515 65 247 0.0 3.0 0.00 0.79 0.15 75 1012.4
20260906172015 65 313 0.0 2.0 0.00 0.79 0.15 71 1012.6
20260906171515 65 0.0 1.0 0.00 0.79 0.15 73 1012.6
20260906171015 65 313 0.0 1.0 0.00 0.79 0.15 75 1012.6
20260906170515 65 0.0 1.0 0.00 0.79 0.15 74 1012.6
20260906170015 65 248 0.0 1.0 0.00 0.79 0.15 70 1012.6
20260906165515 65 0.0 0.0 0.00 0.79 0.15 68 1012.7
20260906165015 65 0.0 0.0 0.00 0.79 0.15 54 1012.7
20260906164535 64 0.0 0.0 0.00 0.79 0.15 32 1012.7
20260906164015 64 0.0 0.0 0.00 0.79 0.15 33 1012.8
20260906163515 64 0.0 0.0 0.00 0.79 0.15 35 1012.9
20260906163015 64 0.0 0.0 0.00 0.79 0.15 34 1013.0
20260906162515 64 0.0 0.0 0.00 0.79 0.15 38 1013.0
20260906162015 64 0.0 0.0 0.00 0.79 0.15 43 1013.0
20260906161535 63 0.0 0.0 0.00 0.79 0.15 44 1013.0
20260906161015 63 0.0 0.0 0.00 0.79 0.15 55 1013.0
20260906160535 63 0.0 2.0 0.00 0.79 0.15 46 1013.0
20260906160015 63 270 0.0 2.0 0.00 0.79 0.15 42 1013.0
20260906155515 63 0.0 0.0 0.00 0.79 0.15 53 1013.0
20260906155015 63 0.0 3.0 0.00 0.79 0.15 55 1013.0
20260906154515 63 64 0.0 3.0 0.00 0.79 0.15 57 1013.1
20260906154035 63 308 0.0 3.0 0.00 0.79 0.15 53 1013.2
20260906153535 63 273 0.0 3.0 0.00 0.79 0.15 49 1013.1
20260906153035 62 0.0 2.0 0.00 0.79 0.15 47 1013.2
20260906152515 62 288 0.0 2.0 0.00 0.79 0.15 38 1013.3
20260906152015 62 295 0.0 1.0 0.00 0.79 0.15 29 1013.3
20260906151515 62 294 0.0 1.0 0.00 0.79 0.15 17 1013.3
20260906151015 62 0.0 0.0 0.00 0.79 0.15 15 1013.3
20260906150515 62 0.0 1.0 0.00 0.79 0.15 18 1013.4
20260906150035 62 287 0.0 1.0 0.00 0.79 0.15 24 1013.4
20260906145535 62 0.0 0.0 0.00 0.79 0.15 25 1013.5
20260906145015 62 0.0 0.0 0.00 0.79 0.15 26 1013.5
20260906144515 62 0.0 0.0 0.00 0.79 0.15 20 1013.5
20260906144015 61 0.0 0.0 0.00 0.79 0.15 24 1013.4
20260906143515 61 0.0 0.0 0.00 0.79 0.15 17 1013.4
20260906143035 61 0.0 0.0 0.00 0.79 0.15 14 1013.4
20260906142515 61 0.0 0.0 0.00 0.79 0.15 12 1013.5
20260906142015 61 0.0 0.0 0.00 0.79 0.15 10 1013.5
20260906141515 61 0.0 0.0 0.00 0.79 0.15 11 1013.4
20260906141015 61 0.0 0.0 0.00 0.79 0.15 10 1013.4
20260906140515 60 0.0 0.0 0.00 0.79 0.15 10 1013.4
20260906140015 60 0.0 0.0 0.00 0.79 0.15 11 1013.3
20260906135515 60 0.0 2.0 0.00 0.79 0.15 13 1013.3
20260906135015 60 199 0.0 2.0 0.00 0.79 0.15 11 1013.3
20260906134515 60 230 0.0 2.0 0.00 0.79 0.15 9 1013.2
20260906134055 60 0.0 0.0 0.00 0.79 0.15 9 1013.2
20260906133537 60 0.0 0.0 0.00 0.79 0.15 10 1013.2
20260906133016 60 0.0 3.0 0.00 0.79 0.15 10 1013.2
20260906132517 60 359 1.0 3.0 0.00 0.79 0.15 10 1013.3
20260906132016 60 0.0 0.0 0.00 0.79 0.15 10 1013.3
20260906131536 60 0.0 3.0 0.00 0.79 0.15 10 1013.3
20260906131016 60 275 0.0 3.0 0.00 0.79 0.15 10 1013.4
20260906130557 59 276 0.0 3.0 0.00 0.79 0.15 10 1013.4
20260906130036 59 275 0.0 2.0 0.00 0.79 0.15 10 1013.4
20260906125536 59 0.0 0.0 0.00 0.79 0.15 10 1013.4
20260906125017 59 0.0 0.0 0.00 0.79 0.15 10 1013.5
20260906124536 59 0.0 1.0 0.00 0.79 0.15 10 1013.4
20260906124016 59 0 0.0 1.0 0.00 0.79 0.15 11 1013.5
20260906123516 59 0.0 2.0 0.00 0.79 0.15 11 1013.5
20260906123016 59 0 0.0 2.0 0.00 0.79 0.15 11 1013.5
20260906122516 59 0.0 1.0 0.00 0.79 0.15 10 1013.4
20260906122016 59 0 0.0 2.0 0.00 0.79 0.15 10 1013.4
20260906121516 59 2 0.0 2.0 0.00 0.79 0.15 11 1013.2
20260906121017 59 0.0 0.0 0.00 0.79 0.15 11 1013.2
20260906120517 59 0.0 0.0 0.00 0.79 0.15 11 1013.2
20260906120017 59 0.0 0.0 0.00 0.79 0.15 11 1013.1
20260906115516 59 0.0 0.0 0.01 0.79 0.15 11 1013.1
20260906115016 59 0.0 1.0 0.01 0.79 0.15 11 1013.0
20260906114516 59 338 0.0 1.0 0.01 0.79 0.15 11 1013.0
20260906114016 59 338 0.0 1.0 0.01 0.79 0.15 11 1012.9
20260906113516 59 0.0 0.0 0.01 0.79 0.15 11 1012.9
20260906113016 58 0.0 0.0 0.01 0.79 0.15 11 1012.8
20260906112516 58 0.0 0.0 0.02 0.79 0.15 11 1012.8
20260906112036 58 0.0 0.0 0.02 0.79 0.15 11 1012.7
20260906111516 58 0.0 0.0 0.02 0.79 0.15 11 1012.6
20260906111036 58 0.0 0.0 0.02 0.79 0.15 11 1012.6
20260906110516 58 0.0 0.0 0.02 0.79 0.15 11 1012.5
20260906110036 58 0.0 0.0 0.02 0.79 0.15 11 1012.4
20260906105516 58 0.0 0.0 0.01 0.78 0.14 11 1012.4
20260906105016 58 0.0 0.0 0.01 0.78 0.14 11 1012.5
20260906104516 58 0.0 0.0 0.01 0.78 0.14 11 1012.4
20260906104036 58 0.0 0.0 0.01 0.78 0.14 11 1012.2
20260906103516 58 0.0 0.0 0.01 0.78 0.14 11 1012.2
20260906103036 58 0.0 0.0 0.01 0.78 0.14 11 1012.2
20260906102536 58 0.0 0.0 0.00 0.77 0.13 11 1012.1
20260906102016 58 0.0 0.0 0.00 0.77 0.13 11 1012.1
20260906101516 58 0.0 0.0 0.00 0.77 0.13 11 1012.0
20260906101016 58 0.0 0.0 0.00 0.77 0.13 11 1012.0
20260906100516 58 0.0 0.0 0.00 0.77 0.13 11 1012.0
20260906100016 58 0.0 0.0 0.01 0.77 0.13 11 1012.0
20260906095516 58 0.0 0.0 0.01 0.77 0.13 11 1012.0
20260906095016 59 0.0 0.0 0.02 0.77 0.13 10 1011.9
20260906094516 59 0.0 0.0 0.02 0.77 0.13 10 1011.8
20260906094016 59 0.0 0.0 0.02 0.77 0.13 10 1011.8
20260906093516 59 0.0 0.0 0.03 0.77 0.13 10 1011.7
20260906093016 59 0.0 0.0 0.04 0.77 0.13 10 1011.7
20260906092516 59 0.0 0.0 0.04 0.77 0.13 10 1011.7
20260906092036 59 0.0 0.0 0.04 0.77 0.13 10 1011.6
20260906091536 59 0.0 0.0 0.05 0.77 0.13 10 1011.5
20260906091016 59 0.0 0.0 0.06 0.77 0.13 10 1011.5
20260906090516 59 0.0 0.0 0.06 0.77 0.13 10 1011.6
20260906090016 59 0.0 0.0 0.05 0.76 0.12 10 1011.7
20260906085516 59 0.0 0.0 0.05 0.76 0.12 10 1011.6
20260906085016 59 0.0 0.0 0.04 0.75 0.11 10 1011.6
20260906084516 59 0.0 0.0 0.04 0.75 0.11 10 1011.6
20260906084016 59 0.0 0.0 0.04 0.75 0.11 10 1011.5
20260906083516 60 0.0 0.0 0.03 0.74 0.10 10 1011.4
20260906083036 60 0.0 0.0 0.02 0.73 0.09 10 1011.4
20260906082516 60 0.0 0.0 0.02 0.73 0.09 10 1011.3
20260906082016 60 0.0 0.0 0.02 0.73 0.09 10 1011.3
20260906081536 60 0.0 0.0 0.02 0.72 0.08 10 1011.3
20260906081016 60 0.0 0.0 0.01 0.71 0.07 10 1011.3
20260906080516 60 0.0 0.0 0.01 0.71 0.07 10 1011.2
20260906080016 60 0.0 0.0 0.01 0.71 0.07 10 1011.2
20260906075516 60 0.0 0.0 0.01 0.71 0.07 10 1011.1
20260906075016 60 0.0 0.0 0.02 0.71 0.07 10 1011.0
20260906074516 60 0.0 0.0 0.02 0.71 0.07 10 1011.0
20260906074016 60 0.0 0.0 0.02 0.71 0.07 10 1010.9
20260906073516 60 0.0 0.0 0.03 0.71 0.07 10 1010.9
20260906073016 60 0.0 0.0 0.04 0.71 0.07 10 1010.9
20260906072515 60 0.0 0.0 0.04 0.71 0.07 10 1010.9
20260906072015 60 0.0 0.0 0.04 0.71 0.07 10 1010.8
20260906071516 60 0.0 0.0 0.03 0.70 0.06 10 1010.7
20260906071016 60 0.0 0.0 0.03 0.70 0.06 10 1010.7
20260906070516 60 0.0 0.0 0.04 0.70 0.06 10 1010.8
20260906070016 60 0.0 0.0 0.04 0.70 0.06 10 1010.8
20260906065516 60 0.0 0.0 0.04 0.70 0.06 10 1010.8
20260906065016 60 0.0 0.0 0.03 0.69 0.05 10 1010.8
20260906064516 60 0.0 0.0 0.04 0.69 0.05 10 1010.8
20260906064016 60 0.0 0.0 0.04 0.69 0.05 10 1010.9
20260906063515 60 0.0 0.0 0.03 0.68 0.04 10 1010.8
20260906063016 60 0.0 0.0 0.02 0.67 0.03 10 1010.8
20260906062536 60 0.0 0.0 0.02 0.67 0.03 10 1010.8
20260906062036 60 0.0 0.0 0.02 0.67 0.03 10 1010.8
20260906061536 60 0.0 0.0 0.02 0.67 0.03 10 1010.8
20260906061036 60 0.0 0.0 0.02 0.67 0.03 10 1010.8
20260906060515 60 0.0 0.0 0.01 0.66 0.02 10 1010.9
20260906060015 60 0.0 0.0 0.01 0.66 0.02 10 1010.9
20260906055516 60 0.0 0.0 0.01 0.66 0.02 10 1010.9
20260906055015 60 0.0 0.0 0.01 0.66 0.02 10 1010.9
20260906054515 60 0.0 0.0 0.00 0.65 0.01 10 1010.8
20260906054016 60 0.0 0.0 0.00 0.65 0.01 10 1010.9
20260906053535 60 0.0 0.0 0.00 0.65 0.01 10 1010.8
20260906053016 60 0.0 0.0 0.01 0.65 0.01 10 1010.9
20260906052536 60 0.0 0.0 0.01 0.65 0.01 10 1010.8
20260906052015 60 0.0 0.0 0.01 0.65 0.01 10 1010.9
20260906051515 60 0.0 0.0 0.01 0.65 0.01 10 1010.9
20260906051015 60 0.0 0.0 0.01 0.65 0.01 10 1010.9
20260906050516 60 0.0 0.0 0.01 0.65 0.01 10 1010.9
20260906050016 60 0.0 0.0 0.01 0.65 0.01 9 1010.9
20260906045535 60 0.0 0.0 0.01 0.65 0.01 9 1011.0
20260906045036 60 0.0 0.0 0.02 0.65 0.01 9 1011.0
20260906044515 61 0.0 0.0 0.02 0.65 0.01 9 1011.0
20260906044015 61 0.0 0.0 0.02 0.65 0.01 9 1011.0
20260906043515 61 0.0 0.0 0.02 0.65 0.01 9 1011.0
20260906043015 61 0.0 0.0 0.01 0.64 0.00 9 1011.0
20260906042555 61 0.0 0.0 0.01 0.64 0.00 9 1011.1
20260906042015 61 0.0 0.0 0.01 0.64 0.00 9 1011.0
20260906041515 61 0.0 0.0 0.02 0.64 0.00 9 1011.0
20260906041015 61 0.0 0.0 0.02 0.64 0.00 9 1010.9
20260906040515 61 0.0 0.0 0.02 0.64 0.00 9 1010.9
20260906040035 61 0.0 0.0 0.02 0.64 0.64 9 1010.9
20260906035515 61 0.0 0.0 0.02 0.64 0.64 9 1010.9
20260906035015 61 0.0 0.0 0.01 0.63 0.63 9 1010.9
20260906034515 61 0.0 0.0 0.01 0.63 0.63 9 1010.8
20260906034015 61 0.0 0.0 0.01 0.63 0.63 9 1010.8
20260906033555 61 0.0 0.0 0.01 0.63 0.63 9 1010.7
20260906033015 61 0.0 0.0 0.01 0.63 0.63 9 1010.6
20260906032515 61 0.0 0.0 0.01 0.63 0.63 9 1010.7
20260906032015 61 0.0 0.0 0.01 0.63 0.63 9 1010.7
20260906031515 61 0.0 0.0 0.00 0.62 0.62 9 1010.7
20260906031015 61 0.0 0.0 0.00 0.62 0.62 9 1010.7
20260906030515 61 0.0 0.0 0.00 0.62 0.62 9 1010.7
20260906030015 61 0.0 0.0 0.01 0.62 0.62 9 1010.7
20260906025535 62 0.0 0.0 0.01 0.62 0.62 9 1010.7
20260906025015 62 0.0 0.0 0.01 0.62 0.62 9 1010.7
20260906024515 62 0.0 0.0 0.01 0.62 0.62 9 1010.7
20260906024015 62 0.0 0.0 0.01 0.62 0.62 9 1010.7
20260906023515 62 0.0 0.0 0.01 0.62 0.62 9 1010.7
20260906023015 62 0.0 0.0 0.03 0.62 0.62 9 1010.7
20260906022515 62 0.0 0.0 0.04 0.62 0.62 9 1010.7
20260906022035 62 0.0 0.0 0.04 0.62 0.62 9 1010.6
20260906021515 62 0.0 0.0 0.05 0.62 0.62 9 1010.6
20260906021035 62 0.0 0.0 0.05 0.62 0.62 9 1010.6
20260906020535 62 0.0 0.0 0.05 0.62 0.62 9 1010.6
20260906020015 62 0.0 0.0 0.04 0.61 0.61 9 1010.6
20260906015515 62 0.0 0.0 0.04 0.61 0.61 9 1010.6
20260906015015 62 0.0 0.0 0.04 0.61 0.61 9 1010.6
20260906014515 62 0.0 0.0 0.04 0.61 0.61 9 1010.6
20260906014035 62 0.0 0.0 0.04 0.61 0.61 9 1010.6
20260906013515 62 0.0 0.0 0.04 0.61 0.61 9 1010.7
20260906013015 62 0.0 0.0 0.02 0.59 0.59 9 1010.9
20260906012515 62 0.0 0.0 0.02 0.58 0.58 9 1010.8
20260906012014 62 0.0 0.0 0.03 0.58 0.58 9 1010.7
20260906011515 63 0.0 0.0 0.02 0.57 0.57 9 1010.7
20260906011015 63 0.0 0.0 0.02 0.57 0.57 9 1010.7
20260906010517 63 0.0 0.0 0.03 0.57 0.57 9 1010.7
20260906010016 63 0.0 0.0 0.03 0.57 0.57 9 1010.6
20260906005557 63 0.0 0.0 0.03 0.57 0.57 9 1010.6
20260906005017 63 0.0 0.0 0.03 0.57 0.57 9 1010.5
20260906004517 63 0.0 0.0 0.03 0.57 0.57 9 1010.5
20260906004057 63 0.0 0.0 0.03 0.57 0.57 9 1010.4
20260906003557 63 0.0 0.0 0.03 0.57 0.57 9 1010.3
20260906003017 63 0.0 0.0 0.03 0.57 0.57 9 1010.2
20260906002516 63 0.0 0.0 0.02 0.56 0.56 9 1010.2
20260906002016 63 0.0 0.0 0.01 0.55 0.55 9 1010.2
20260906001516 63 0.0 0.0 0.01 0.55 0.55 9 1010.2
20260906001016 63 0.0 0.0 0.01 0.55 0.55 9 1010.2
20260906000536 63 0.0 0.0 0.00 0.54 0.54 9 1010.1
20260906000016 63 0.0 0.0 0.00 0.54 0.54 9 1010.1
20260905235516 63 0.0 0.0 0.00 0.54 0.54 9 1010.1
20260905235016 63 0.0 0.0 0.00 0.54 0.54 10 1010.1
20260905234516 63 0.0 0.0 0.00 0.54 0.54 10 1010.0
20260905234036 63 0.0 0.0 0.00 0.54 0.54 10 1010.0
20260905233516 63 0.0 0.0 0.00 0.54 0.54 10 1009.9
20260905233016 63 0.0 0.0 0.00 0.54 0.54 10 1009.8
20260905232516 63 0.0 0.0 0.00 0.54 0.54 11 1009.8
20260905232016 63 0.0 0.0 0.00 0.54 0.54 11 1009.8
20260905231516 63 0.0 0.0 0.00 0.54 0.54 11 1009.7
20260905231016 63 0.0 0.0 0.00 0.54 0.54 11 1009.7
20260905230516 63 0.0 0.0 0.00 0.54 0.54 11 1009.7
20260905230016 63 0.0 0.0 0.00 0.54 0.54 12 1009.7
20260905225516 63 0.0 0.0 0.00 0.54 0.54 12 1009.7
20260905225036 63 0.0 0.0 0.00 0.54 0.54 12 1009.5
20260905224517 63 0.0 0.0 0.00 0.54 0.54 12 1009.5
20260905224016 63 0.0 0.0 0.01 0.54 0.54 13 1009.4
20260905223556 63 0.0 0.0 0.01 0.54 0.54 14 1009.4
20260905223016 63 0.0 0.0 0.03 0.54 0.54 14 1009.4
20260905222516 63 0.0 0.0 0.05 0.54 0.54 15 1009.4
20260905222016 63 0.0 0.0 0.08 0.54 0.54 15 1009.3
20260905221516 63 0.0 0.0 0.11 0.54 0.54 16 1009.3
20260905221016 63 0.0 0.0 0.15 0.54 0.54 16 1009.4
20260905220516 63 0.0 0.0 0.19 0.54 0.54 18 1009.4
20260905220016 63 0.0 0.0 0.25 0.54 0.54 20 1009.3
20260905215516 64 0.0 0.0 0.30 0.54 0.54 23 1009.2
20260905215016 64 0.0 0.0 0.36 0.54 0.54 24 1009.1
20260905214516 64 0.0 0.0 0.42 0.54 0.54 24 1009.1
20260905214016 64 0.0 1.0 0.48 0.53 0.53 27 1009.0
20260905213656 64 68 0.0 1.0 0.52 0.53 0.53 30 1008.9
20260905213016 64 68 0.0 1.0 0.51 0.51 0.51 34 1008.9
20260905212516 64 68 0.0 1.0 0.49 0.49 0.49 39 1008.9